sat.trackr.live / text

‹ back to catalog

STARLINK-35912

NORAD 66882 · 2025-283E

PAYLOAD ACTIVE UNKNOWN

§ Identity

Operator
Country
US
Launch date
2025-12-04
Launch site
AFWTR
Launch vehicle
Mass (kg)
RCS (m²)

Purposes: comms

External: N2YO · Heavens-Above · Gunter

§ Orbital elements

Epoch: 2026-09-20T06:59:58.502976Z

Period
93.85 min
Inclination
53.1577°
Eccentricity
0.0001302
Mean motion
15.34408860 rev/d
Perigee alt
461.8 km
Apogee alt
463.6 km
Semi-major
6,840.8 km
B*
5.5424e-4
RAAN
196.3632°
Arg perigee
88.1548°
Mean anomaly
271.9604°
Rev number
4,569

§ Raw data

STARLINK-359121 66882U 25283E   26263.29164934  .00018401  00000+0  55424-3 0  99932 66882  53.1577 196.3632 0001302  88.1548 271.9604 15.34408860 45692

JSON: /api/v1/satellites/66882 · /tle

For live sub-satellite position, see the globe view (requires WebGL).

§ Visibility from observer

Set your observer location to see the next 7 days of passes ≥ 10°. The values pass through the URL so the page stays shareable.

No JS? Fill the form by hand. The geolocation button needs JavaScript.